[[{"header":{"parameterUnit":"m.s-1","parameterCategory":2,"la1":30.2991,"la2":30.254,"lo1":-89.0895,"lo2":-89.0444,"dy":0.0017,"dx":0.0017,"nx":28,"ny":28,"refTime":"2024-04-25T21:00:00:Z","depth":"0","parameterNumber":2,"parameterNumberName":"U-component_of_CURRENTS"},"data":[0,0,0,0,0,0,0,0,0,0,0,0,0,0,0,0,0,0,0,0,0,0,0,0,0,0,0,0,0,0,0,0,0,0,0,0,0,0,0,0,0,0,0,0,0,0,0,0,0,0,0,0,0,0,0,0,0,0,-0.3149,-0.3149,0,-0.3177,-0.3177,-0.3177,-0.3147,-0.3147,-0.3146,-0.3145,-0.3103,-0.3103,-0.3102,0,0,0,0,0,0,0,0,0,0,0,0,0,-0.3038,-0.304,-0.3148,-0.3149,-0.315,-0.3177,-0.3177,-0.3177,-0.3147,-0.3146,-0.3146,-0.3145,-0.3103,-0.3103,-0.3102,0,0,0,0,0,0,0,0,0,0,0,0,0,-0.3073,-0.3041,-0.3148,-0.3142,-0.3143,-0.3177,-0.3177,-0.3176,-0.3147,-0.3146,-0.3145,-0.3145,-0.3104,-0.3103,-0.3102,-0.3118,0,0,-0.31,-0.31,0,0,0,0,0,0,0,0,-0.3071,-0.3077,-0.3143,-0.3143,-0.3143,-0.3162,-0.3123,-0.3155,-0.3148,-0.314,-0.3145,-0.3144,-0.312,-0.3118,-0.312,-0.3116,-0.3114,-0.31,-0.3099,-0.3099,-0.3099,0,0,0,0,0,0,0,-0.3069,-0.3075,-0.3154,-0.3144,-0.3144,-0.3128,-0.3132,-0.3128,-0.313,-0.3141,-0.314,-0.3152,-0.3119,-0.312,-0.3118,-0.3113,-0.31,-0.3099,-0.3099,-0.3099,-0.3146,-0.3147,0,0,0,0,0,0,-0.3079,-0.3074,-0.3154,-0.3156,-0.311,-0.3131,-0.3135,-0.3153,-0.3132,-0.313,-0.3152,-0.315,-0.3122,-0.3119,-0.3117,-0.3162,-0.3099,-0.3098,-0.3098,-0.3144,-0.3146,-0.3148,0,0,0,0,0,0,-0.3077,-0.3086,-0.3153,-0.3118,-0.3127,-0.3135,-0.3155,-0.3154,-0.3155,-0.3143,-0.3138,-0.3154,-0.3121,-0.3118,-0.3124,-0.3158,-0.3098,-0.3097,-0.3142,-0.3145,-0.3147,-0.3233,0,0,0,0,0,0,-0.3073,-0.3085,-0.3095,-0.312,-0.3129,-0.3184,-0.3156,-0.3155,-0.3166,-0.3163,-0.3143,-0.3138,-0.312,-0.3126,-0.3123,-0.3156,-0.3097,-0.314,-0.3143,-0.3146,-0.3228,-0.3239,-0.3247,0,0,0,0,0,-0.3069,-0.309,-0.3095,-0.3105,-0.3144,-0.3186,-0.3189,-0.3187,-0.3167,-0.318,-0.3165,-0.3138,-0.3144,-0.3126,-0.3123,-0.3157,-0.3138,-0.3142,-0.3146,-0.3224,-0.3237,-0.3247,0,0,0,0,0,0,-0.3043,-0.3091,-0.3096,-0.3129,-0.3161,-0.3183,-0.3191,-0.3192,-0.3191,-0.318,-0.3156,-0.3152,-0.3173,-0.3154,-0.3134,-0.3181,-0.3139,-0.3142,-0.3199,-0.3211,-0.322,-0.3226,-0.3096,0,0,0,0,0,-0.3046,-0.3072,-0.3117,-0.3141,-0.3159,-0.3175,-0.3187,-0.3194,-0.3202,-0.3199,-0.3188,-0.3179,-0.3189,-0.3189,-0.3189,-0.321,-0.3188,-0.3232,-0.3241,-0.3249,-0.3254,-0.3248,-0.3257,-0.3161,-0.3161,-0.316,0,0,-0.3038,-0.307,-0.3082,-0.3137,-0.3153,-0.3199,-0.3178,-0.3207,-0.3243,-0.3195,-0.3222,-0.321,-0.3202,-0.3232,-0.3239,-0.3217,-0.3268,-0.3254,-0.3261,-0.3261,-0.3253,-0.3263,-0.3271,-0.3163,-0.3163,-0.3162,0,0,-0.3046,-0.307,-0.3098,-0.3139,-0.3185,-0.3207,-0.322,-0.3252,-0.3262,-0.3293,-0.3274,-0.3285,-0.3287,-0.3299,-0.3303,-0.3364,-0.3319,-0.3362,-0.3414,-0.341,-0.3417,-0.3424,-0.3418,-0.3423,-0.3366,-0.3366,-0.3366,0,-0.3032,-0.3085,-0.3112,-0.3161,-0.3198,-0.3217,-0.3264,-0.3291,-0.332,-0.3335,-0.3311,-0.3335,-0.3325,-0.3374,-0.3396,-0.3387,-0.3368,-0.3371,-0.3421,-0.3427,-0.3432,-0.3424,-0.3429,-0.3371,-0.337,-0.337,-0.3369,0,-0.3074,-0.312,-0.3142,-0.3215,-0.3257,-0.33,-0.3356,-0.3388,-0.3394,-0.3414,-0.3451,-0.3443,-0.345,-0.3463,-0.3447,-0.3491,-0.3462,-0.3434,-0.339,-0.3447,-0.3435,-0.3438,-0.3378,-0.3376,-0.3374,-0.3373,0,0,-0.3021,-0.3146,-0.315,-0.3198,-0.3291,-0.3326,-0.3402,-0.3469,-0.3504,-0.3527,-0.3564,-0.3592,-0.3568,-0.3571,-0.3558,-0.3563,-0.3589,-0.3515,-0.3513,-0.3506,-0.3573,-0.3489,-0.3484,-0.356,-0.3561,-0.3561,-0.3554,0,-0.3039,-0.3135,-0.3199,-0.3287,-0.3342,-0.3407,-0.3476,-0.3538,-0.3571,-0.3611,-0.3622,-0.3642,-0.3617,-0.3612,-0.3621,-0.3593,-0.3599,-0.3593,-0.3522,-0.352,-0.3435,-0.3485,-0.3371,-0.3349,-0.3557,-0.3557,-0.3558,0,-0.305,-0.3119,-0.3207,-0.3333,-0.3361,-0.3414,-0.3512,-0.3577,-0.3654,-0.3677,-0.3705,-0.3701,-0.3729,-0.3683,-0.3678,-0.3669,-0.3629,-0.3607,-0.3605,-0.3496,-0.3441,-0.3324,-0.3346,-0.3343,-0.3562,-0.3561,-0.3561,0,-0.2986,-0.3119,-0.3184,-0.323,-0.3375,-0.3417,-0.3481,-0.3576,-0.3627,-0.3699,-0.3722,-0.3757,-0.375,-0.3731,-0.3678,-0.3676,-0.365,-0.3638,-0.3534,-0.3527,-0.3401,-0.3381,-0.3404,-0.3629,-0.3629,-0.3629,-0.3629,0,-0.2979,-0.3028,-0.3154,-0.3193,-0.3257,-0.3374,-0.3439,-0.3513,-0.3614,-0.366,-0.3725,-0.3749,-0.3755,-0.3738,-0.3698,-0.3616,-0.3659,-0.3551,-0.3522,-0.3428,-0.3412,-0.3377,-0.3388,-0.3628,-0.3629,-0.3629,-0.3629,0,-0.2891,-0.2986,-0.3058,-0.3194,-0.3227,-0.3261,-0.339,-0.3448,-0.3552,-0.3613,-0.3633,-0.3729,-0.3711,-0.3701,-0.3664,-0.3619,-0.3506,-0.3518,-0.3408,-0.3365,-0.327,-0.3288,-0.3242,-0.3148,-0.3426,-0.3424,-0.3422,0,-0.2855,-0.2883,-0.3004,-0.3036,-0.3089,-0.3164,-0.3225,-0.3373,-0.3436,-0.3584,-0.3602,-0.3639,-0.3636,-0.3577,-0.3502,-0.3426,-0.3405,-0.3281,-0.3263,-0.3257,-0.3257,-0.3264,-0.3188,-0.314,-0.3136,-0.3133,-0.3131,0,-0.2761,-0.2795,-0.285,-0.2912,-0.297,-0.3036,-0.3128,-0.3175,-0.3348,-0.3417,-0.3495,-0.3516,-0.3496,-0.3399,-0.3309,-0.3231,-0.3212,-0.3212,-0.3233,-0.3062,-0.3041,-0.2936,-0.3165,-0.3102,-0.3105,-0.3107,-0.3108,-0.311,-0.2652,-0.2656,-0.2717,-0.2761,-0.2827,-0.2867,-0.2861,-0.2993,-0.3059,-0.3133,-0.3279,-0.3287,-0.331,-0.3178,-0.3114,-0.2975,-0.2997,-0.2904,-0.2937,-0.2953,-0.2832,-0.2997,-0.2879,-0.288,-0.2882,-0.2883,-0.2884,0,-0.2511,-0.2533,-0.257,-0.2608,-0.2605,-0.2692,-0.2764,-0.2737,-0.2753,-0.2901,-0.2944,-0.3024,-0.2951,-0.2969,-0.2882,-0.2767,-0.2687,-0.2684,-0.2687,-0.2625,-0.2793,-0.2749,-0.2561,-0.2561,-0.2561,-0.2561,-0.2561,-0.2561,-0.2437,-0.2412,-0.2435,-0.236,-0.2382,-0.2304,-0.2298,-0.2299,-0.2361,-0.2403,-0.251,-0.2651,-0.2715,-0.2961,-0.2839,-0.2694,-0.2623,-0.2522,-0.2537,-0.2701,-0.2725,-0.2748,-0.2711,-0.2519,-0.2519,-0.2288,-0.2287,-0.2285]},{"header":{"parameterUnit":"m.s-1","parameterCategory":2,"la1":30.2991,"la2":30.254,"lo1":-89.0895,"lo2":-89.0444,"dy":0.0017,"dx":0.0017,"nx":28,"ny":28,"refTime":"2024-04-25T21:00:00:Z","depth":"0","parameterNumber":3,"parameterNumberName":"V-component_of_CURRENTS"},"data":[0,0,0,0,0,0,0,0,0,0,0,0,0,0,0,0,0,0,0,0,0,0,0,0,0,0,0,0,0,0,0,0,0,0,0,0,0,0,0,0,0,0,0,0,0,0,0,0,0,0,0,0,0,0,0,0,0,0,-0.0157,-0.0156,0,-0.0024,-0.0022,-0.0021,0.0066,0.0066,0.0066,0.0067,0.0242,0.0246,0.025,0,0,0,0,0,0,0,0,0,0,0,0,0,-0.0257,-0.0256,-0.0158,-0.0156,-0.0154,-0.0024,-0.0022,-0.002,0.0066,0.0066,0.0067,0.0067,0.024,0.0245,0.0251,0,0,0,0,0,0,0,0,0,0,0,0,0,-0.0176,-0.0255,-0.0158,-0.0097,-0.009,-0.0025,-0.0022,-0.002,0.0066,0.0066,0.0067,0.0067,0.0239,0.0245,0.0251,0.0279,0,0,0.0271,0.0274,0,0,0,0,0,0,0,0,-0.0181,-0.0172,-0.0108,-0.0101,-0.0094,0.0003,0.0007,0.0082,0.0065,0.0008,0.0067,0.0067,0.0164,0.0177,0.0203,0.0288,0.0295,0.0272,0.0275,0.0278,0.028,0,0,0,0,0,0,0,-0.0187,-0.0177,-0.0103,-0.0106,-0.0098,-0.0049,-0.0037,0.0022,0.0083,0.0013,0.0019,0.0031,0.0169,0.0196,0.0207,0.0298,0.0271,0.0277,0.0281,0.0284,0.0432,0.0432,0,0,0,0,0,0,-0.0211,-0.0183,-0.0107,-0.0099,-0.0139,-0.0048,-0.0035,-0.0027,0.0082,0.0098,0.0031,0.0035,0.0185,0.02,0.0214,0.0262,0.0278,0.0284,0.0288,0.0432,0.0432,0.0432,0,0,0,0,0,0,-0.0214,-0.0206,-0.0113,-0.0139,-0.0124,-0.0048,-0.0039,-0.0025,0.0003,0.0095,0.0112,0.0043,0.0186,0.0205,0.0267,0.0269,0.0287,0.0293,0.0432,0.0432,0.0432,0.0353,0,0,0,0,0,0,-0.0218,-0.0208,-0.0214,-0.0141,-0.0123,-0.0087,-0.0039,-0.0023,0.0009,0.0016,0.0111,0.0128,0.0188,0.0257,0.0273,0.0278,0.0298,0.0432,0.0432,0.0432,0.0355,0.035,0.0346,0,0,0,0,0,-0.0222,-0.0236,-0.0215,-0.0206,-0.0133,-0.0087,-0.0074,-0.0016,0.0008,0.0013,0.0083,0.0125,0.0269,0.0262,0.0281,0.0288,0.0431,0.0432,0.0432,0.0357,0.0351,0.0346,0,0,0,0,0,0,-0.0284,-0.0227,-0.0202,-0.0199,-0.0153,-0.0074,-0.0067,-0.0024,0.0035,0.0042,0.013,0.0152,0.0205,0.0256,0.0246,0.0331,0.0356,0.036,0.0293,0.0288,0.0283,0.0261,0.0303,0,0,0,0,0,-0.0302,-0.0299,-0.0233,-0.0232,-0.0214,-0.0142,-0.0117,-0.0077,-0.0014,0.0013,0.0082,0.0155,0.0221,0.026,0.032,0.0369,0.0424,0.0385,0.038,0.0376,0.0371,0.046,0.0463,0.0432,0.0432,0.0432,0,0,-0.0327,-0.0296,-0.0294,-0.0246,-0.0205,-0.0186,-0.0125,-0.0097,-0.0072,0.0022,0.007,0.0138,0.0228,0.0283,0.0311,0.0327,0.0412,0.0376,0.0371,0.0369,0.0461,0.0464,0.0467,0.0433,0.0432,0.0432,0,0,-0.0381,-0.0348,-0.0364,-0.0329,-0.0278,-0.0228,-0.0226,-0.015,-0.011,-0.0056,0.0019,0.0089,0.0182,0.0255,0.0303,0.0309,0.0379,0.0323,0.0291,0.0377,0.038,0.0384,0.0447,0.0457,0.0326,0.0326,0.0326,0,-0.0416,-0.0422,-0.0362,-0.0363,-0.034,-0.0254,-0.0259,-0.0203,-0.0116,-0.0079,-0.0057,0.0103,0.0172,0.0264,0.0263,0.0299,0.0349,0.0303,0.037,0.0375,0.038,0.0445,0.0457,0.0322,0.0323,0.0323,0.0324,0,-0.0472,-0.0476,-0.0482,-0.0452,-0.0418,-0.041,-0.0325,-0.0285,-0.0226,-0.016,-0.0067,0.004,0.0137,0.017,0.0218,0.0292,0.0315,0.0348,0.038,0.0378,0.0447,0.0461,0.0317,0.0318,0.0319,0.032,0,0,-0.0553,-0.053,-0.0532,-0.0536,-0.0465,-0.0445,-0.0399,-0.0329,-0.0293,-0.0195,-0.0133,-0.0014,0.0053,0.0111,0.0194,0.027,0.0344,0.0312,0.0318,0.0367,0.0519,0.0576,0.0597,0.0388,0.039,0.0391,0.0549,0,-0.0617,-0.066,-0.0611,-0.063,-0.0641,-0.0542,-0.0506,-0.0424,-0.0337,-0.0255,-0.0116,-0.0034,0.0031,0.0077,0.0166,0.0305,0.0378,0.0297,0.0522,0.0528,0.0573,0.0614,0.0679,0.0829,0.0563,0.0565,0.0567,0,-0.0682,-0.0705,-0.0749,-0.0725,-0.0716,-0.0702,-0.0619,-0.0575,-0.0429,-0.0358,-0.0234,-0.0121,0.0023,0.0067,0.0305,0.0249,0.0365,0.047,0.0479,0.057,0.0611,0.0792,0.0865,0.1092,0.0589,0.0587,0.0586,0,-0.0777,-0.0791,-0.0834,-0.0825,-0.0783,-0.077,-0.0734,-0.0614,-0.0571,-0.042,-0.0363,-0.017,-0.007,0.0112,0.0334,0.0319,0.0592,0.0605,0.0767,0.0771,0.0891,0.0903,0.1206,0.0757,0.0757,0.0757,0.0756,0,-0.086,-0.0891,-0.0887,-0.0911,-0.0948,-0.0871,-0.0863,-0.0793,-0.0676,-0.0619,-0.0431,-0.0327,-0.0057,0.0143,0.0328,0.0604,0.0597,0.0773,0.0827,0.0864,0.0871,0.1125,0.1197,0.0763,0.0761,0.076,0.0759,0,-0.0951,-0.0949,-0.1,-0.0994,-0.0999,-0.1021,-0.0974,-0.0955,-0.0833,-0.0747,-0.0702,-0.0438,-0.0162,0.0116,0.0432,0.0598,0.0996,0.0938,0.0953,0.1006,0.1352,0.1414,0.1726,0.1857,0.1143,0.1146,0.1148,0,-0.1,-0.1041,-0.1085,-0.1128,-0.1132,-0.115,-0.116,-0.1057,-0.1016,-0.0802,-0.076,-0.0475,-0.0232,0.0267,0.0623,0.0986,0.1128,0.1217,0.1204,0.1402,0.1512,0.1539,0.1627,0.133,0.1333,0.1336,0.1338,0,-0.1093,-0.1104,-0.1151,-0.1257,-0.1294,-0.1321,-0.1313,-0.1302,-0.1153,-0.1035,-0.0813,-0.0597,-0.0075,0.0418,0.0886,0.1087,0.1394,0.1284,0.1513,0.1706,0.1737,0.1877,0.1172,0.1363,0.1361,0.1359,0.1358,0.1357,-0.1148,-0.1211,-0.1283,-0.1372,-0.1427,-0.1465,-0.1474,-0.1407,-0.132,-0.1096,-0.0868,-0.0487,0.0239,0.0947,0.1201,0.1726,0.1631,0.1856,0.192,0.1933,0.2058,0.139,0.1623,0.1622,0.1621,0.1621,0.162,0,-0.1219,-0.1291,-0.1394,-0.1487,-0.1562,-0.156,-0.1552,-0.1508,-0.1388,-0.1102,-0.0822,-0.0004,0.0702,0.133,0.2099,0.2363,0.2412,0.2467,0.2548,0.2612,0.2067,0.2076,0.2391,0.2391,0.239,0.239,0.239,0.239,-0.1257,-0.1376,-0.1435,-0.1582,-0.1641,-0.1691,-0.168,-0.1564,-0.1352,-0.0853,-0.0375,0.004,0.0951,0.2235,0.2933,0.2965,0.3195,0.3138,0.3262,0.2909,0.2857,0.2807,0.2839,0.3308,0.3309,0.3803,0.3808,0.3812]}],[{"header":{"parameterUnit":"m.s-1","parameterCategory":2,"la1":30.2991,"la2":30.254,"lo1":-89.0895,"lo2":-89.0444,"dy":0.0017,"dx":0.0017,"nx":28,"ny":28,"refTime":"2024-04-25T21:00:00:Z","depth":"2","parameterNumber":2,"parameterNumberName":"U-component_of_CURRENTS"},"data":[0,0,0,0,0,0,0,0,0,0,0,0,0,0,0,0,0,0,0,0,0,0,0,0,0,0,0,0,0,0,0,0,0,0,0,0,0,0,0,0,0,0,0,0,0,0,0,0,0,0,0,0,0,0,0,0,0,0,-0.3024,-0.3024,0,-0.3051,-0.3051,-0.3051,-0.3026,-0.3025,-0.3025,-0.3024,-0.2985,-0.2984,-0.2984,0,0,0,0,0,0,0,0,0,0,0,0,0,-0.2917,-0.2919,-0.3023,-0.3024,-0.3025,-0.3051,-0.3051,-0.3051,-0.3026,-0.3025,-0.3024,-0.3024,-0.2985,-0.2984,-0.2984,0,0,0,0,0,0,0,0,0,0,0,0,0,-0.2951,-0.2919,-0.3023,-0.3019,-0.302,-0.3051,-0.3051,-0.3051,-0.3026,-0.3025,-0.3024,-0.3023,-0.2985,-0.2984,-0.2983,-0.2995,0,0,-0.2981,-0.2981,0,0,0,0,0,0,0,0,-0.2949,-0.2954,-0.3019,-0.302,-0.302,-0.3038,-0.2999,-0.3031,-0.3026,-0.3018,-0.3024,-0.3023,-0.3,-0.2998,-0.2999,-0.2993,-0.2992,-0.2981,-0.298,-0.298,-0.298,0,0,0,0,0,0,0,-0.2947,-0.2953,-0.3029,-0.302,-0.3021,-0.3006,-0.3009,-0.3005,-0.3008,-0.3019,-0.3018,-0.303,-0.2999,-0.3,-0.2998,-0.2991,-0.2981,-0.298,-0.298,-0.2979,-0.3023,-0.3024,0,0,0,0,0,0,-0.2957,-0.2951,-0.3028,-0.3031,-0.2988,-0.3009,-0.3012,-0.3029,-0.301,-0.3008,-0.303,-0.3029,-0.3002,-0.2999,-0.2996,-0.3041,-0.298,-0.2979,-0.2979,-0.3021,-0.3023,-0.3025,0,0,0,0,0,0,-0.2954,-0.2963,-0.3027,-0.2995,-0.3002,-0.3012,-0.3031,-0.303,-0.3033,-0.302,-0.3016,-0.3035,-0.3001,-0.2997,-0.3004,-0.3038,-0.2979,-0.2978,-0.3019,-0.3022,-0.3024,-0.311,0,0,0,0,0,0,-0.2951,-0.2962,-0.2973,-0.2996,-0.3005,-0.3058,-0.3032,-0.3032,-0.3044,-0.3042,-0.3023,-0.3018,-0.3,-0.3006,-0.3004,-0.3036,-0.2978,-0.3017,-0.302,-0.3023,-0.3105,-0.3115,-0.3124,0,0,0,0,0,-0.2947,-0.2968,-0.2973,-0.2982,-0.3021,-0.306,-0.3063,-0.3063,-0.3045,-0.3059,-0.3045,-0.3019,-0.3024,-0.3007,-0.3003,-0.3036,-0.3015,-0.3019,-0.3023,-0.3101,-0.3113,-0.3123,0,0,0,0,0,0,-0.2923,-0.2969,-0.2974,-0.3007,-0.3038,-0.3058,-0.3067,-0.3069,-0.3069,-0.306,-0.3036,-0.3032,-0.3053,-0.3033,-0.3015,-0.3059,-0.3017,-0.302,-0.3078,-0.3089,-0.3098,-0.3104,-0.2977,0,0,0,0,0,-0.2926,-0.2952,-0.2995,-0.3018,-0.3036,-0.3052,-0.3064,-0.3072,-0.308,-0.3078,-0.3068,-0.3059,-0.3067,-0.3067,-0.3066,-0.3086,-0.3064,-0.3107,-0.3116,-0.3124,-0.3128,-0.3122,-0.3131,-0.3037,-0.3037,-0.3037,0,0,-0.292,-0.295,-0.2962,-0.3015,-0.3031,-0.3075,-0.3056,-0.3085,-0.312,-0.3074,-0.3101,-0.309,-0.308,-0.3108,-0.3115,-0.3094,-0.3143,-0.3129,-0.3136,-0.3135,-0.3127,-0.3136,-0.3144,-0.3039,-0.3039,-0.3038,0,0,-0.2928,-0.2952,-0.298,-0.3019,-0.3065,-0.3085,-0.3099,-0.313,-0.314,-0.3171,-0.3152,-0.3163,-0.3164,-0.3174,-0.3176,-0.3236,-0.3192,-0.3234,-0.3286,-0.3281,-0.3288,-0.3294,-0.329,-0.3295,-0.3239,-0.3239,-0.3239,0,-0.2917,-0.2967,-0.2993,-0.3041,-0.3076,-0.3095,-0.3141,-0.3167,-0.3196,-0.321,-0.3189,-0.3211,-0.3201,-0.3245,-0.3268,-0.3258,-0.3241,-0.3244,-0.3292,-0.3298,-0.3302,-0.3296,-0.3301,-0.3243,-0.3243,-0.3242,-0.3242,0,-0.2956,-0.3002,-0.3023,-0.3093,-0.3133,-0.3176,-0.3229,-0.326,-0.3268,-0.3287,-0.3324,-0.3315,-0.3321,-0.3333,-0.3318,-0.336,-0.3333,-0.3304,-0.3262,-0.3317,-0.3307,-0.331,-0.325,-0.3248,-0.3247,-0.3246,0,0,-0.2908,-0.3027,-0.3031,-0.3077,-0.3167,-0.32,-0.3273,-0.3336,-0.3371,-0.3394,-0.3431,-0.3457,-0.3435,-0.3437,-0.3424,-0.343,-0.3456,-0.3384,-0.3382,-0.3378,-0.3442,-0.3358,-0.3353,-0.3428,-0.3429,-0.3429,-0.3426,0,-0.2925,-0.3017,-0.3078,-0.3162,-0.3214,-0.3277,-0.3342,-0.3402,-0.3434,-0.3474,-0.3485,-0.3505,-0.3482,-0.3478,-0.3487,-0.346,-0.3466,-0.346,-0.3391,-0.3389,-0.3306,-0.3354,-0.3076,-0.3043,-0.3428,-0.3429,-0.3429,0,-0.2936,-0.3002,-0.3086,-0.3205,-0.3232,-0.3283,-0.3376,-0.3439,-0.3513,-0.3536,-0.3564,-0.3562,-0.359,-0.3547,-0.3542,-0.3534,-0.3497,-0.3475,-0.3474,-0.3364,-0.331,-0.3048,-0.3033,-0.3433,-0.3433,-0.3433,-0.3432,0,-0.2875,-0.3001,-0.3064,-0.3108,-0.3245,-0.3286,-0.3347,-0.3438,-0.3487,-0.3559,-0.3583,-0.3617,-0.3613,-0.3594,-0.3544,-0.3542,-0.3518,-0.3505,-0.3402,-0.3396,-0.313,-0.3099,-0.3496,-0.3496,-0.3496,-0.3496,-0.3496,0,-0.2867,-0.2914,-0.3035,-0.3072,-0.3134,-0.3246,-0.3308,-0.338,-0.3477,-0.3521,-0.3587,-0.361,-0.3618,-0.3602,-0.3564,-0.3484,-0.3527,-0.342,-0.3391,-0.3155,-0.3127,-0.3436,-0.3429,-0.3496,-0.3496,-0.3496,-0.3496,0,-0.2783,-0.2874,-0.2942,-0.3073,-0.3105,-0.3137,-0.3262,-0.3317,-0.342,-0.3478,-0.3499,-0.3593,-0.3577,-0.3568,-0.3533,-0.3487,-0.3434,-0.3388,-0.3116,-0.3055,-0.332,-0.3318,-0.3303,-0.33,-0.3297,-0.3295,-0.3294,0,-0.2748,-0.2775,-0.2891,-0.2922,-0.2973,-0.3045,-0.3103,-0.3246,-0.3305,-0.345,-0.3466,-0.3505,-0.3498,-0.3441,-0.3337,-0.3256,-0.3348,-0.2983,-0.2941,-0.3328,-0.3302,-0.3303,-0.3305,-0.2626,-0.2619,-0.2614,-0.2609,0,-0.2656,-0.269,-0.2741,-0.2801,-0.2857,-0.2917,-0.3006,-0.305,-0.3216,-0.3279,-0.3354,-0.3371,-0.3327,-0.3128,-0.3029,-0.2939,-0.2982,-0.2866,-0.3312,-0.273,-0.2692,-0.2666,-0.2689,-0.2557,-0.2562,-0.2566,-0.2569,-0.2571,-0.2551,-0.2553,-0.2612,-0.2653,-0.2716,-0.2751,-0.2742,-0.2851,-0.2905,-0.2926,-0.3094,-0.3012,-0.3012,-0.2712,-0.2598,-0.2483,-0.2682,-0.2567,-0.2584,-0.2607,-0.254,-0.2501,-0.2319,-0.2322,-0.2325,-0.2328,-0.233,0,-0.2406,-0.2433,-0.2467,-0.2501,-0.2488,-0.2581,-0.2645,-0.2575,-0.2559,-0.2613,-0.2614,-0.2355,-0.2263,-0.2262,-0.2022,-0.2015,-0.1969,-0.1932,-0.1872,-0.1923,-0.1968,-0.1869,-0.1469,-0.1467,-0.1465,-0.1464,0,0,-0.2332,-0.2301,-0.2321,-0.2239,-0.2268,-0.2166,-0.2157,-0.2078,-0.2049,-0.1911,-0.1864,-0.2034,-0.2157,-0.1797,-0.1734,-0.1569,-0.1715,-0.1478,-0.2157,-0.213,-0.2173,-0.2314,-0.2217,0,0,0,0,0]},{"header":{"parameterUnit":"m.s-1","parameterCategory":2,"la1":30.2991,"la2":30.254,"lo1":-89.0895,"lo2":-89.0444,"dy":0.0017,"dx":0.0017,"nx":28,"ny":28,"refTime":"2024-04-25T21:00:00:Z","depth":"2","parameterNumber":3,"parameterNumberName":"V-component_of_CURRENTS"},"data":[0,0,0,0,0,0,0,0,0,0,0,0,0,0,0,0,0,0,0,0,0,0,0,0,0,0,0,0,0,0,0,0,0,0,0,0,0,0,0,0,0,0,0,0,0,0,0,0,0,0,0,0,0,0,0,0,0,0,-0.0186,-0.0185,0,-0.0055,-0.0053,-0.0051,0.0032,0.0033,0.0033,0.0033,0.0204,0.0208,0.0212,0,0,0,0,0,0,0,0,0,0,0,0,0,-0.0285,-0.0284,-0.0186,-0.0185,-0.0183,-0.0055,-0.0053,-0.0051,0.0032,0.0033,0.0033,0.0033,0.0203,0.0208,0.0213,0,0,0,0,0,0,0,0,0,0,0,0,0,-0.0205,-0.0283,-0.0186,-0.0127,-0.0121,-0.0055,-0.0053,-0.005,0.0032,0.0033,0.0033,0.0034,0.0201,0.0207,0.0214,0.0242,0,0,0.0233,0.0236,0,0,0,0,0,0,0,0,-0.021,-0.0202,-0.0137,-0.0131,-0.0124,-0.0028,-0.0025,0.0049,0.0032,-0.0024,0.0033,0.0034,0.0129,0.0141,0.0166,0.025,0.0258,0.0233,0.0237,0.024,0.0242,0,0,0,0,0,0,0,-0.0216,-0.0206,-0.0132,-0.0136,-0.0128,-0.008,-0.0069,-0.001,0.005,-0.0019,-0.0013,-0.0001,0.0133,0.016,0.0171,0.026,0.0233,0.0239,0.0243,0.0245,0.0391,0.0391,0,0,0,0,0,0,-0.024,-0.0212,-0.0137,-0.0129,-0.0168,-0.0079,-0.0066,-0.0058,0.0048,0.0064,-0.0002,0.0002,0.0149,0.0163,0.0177,0.0225,0.024,0.0246,0.025,0.0391,0.0391,0.0391,0,0,0,0,0,0,-0.0242,-0.0235,-0.0142,-0.0168,-0.0153,-0.0079,-0.007,-0.0056,-0.0028,0.0061,0.0078,0.0011,0.015,0.0168,0.023,0.0231,0.0249,0.0255,0.0391,0.0391,0.0391,0.0315,0,0,0,0,0,0,-0.0246,-0.0236,-0.0242,-0.017,-0.0153,-0.0115,-0.007,-0.0054,-0.0023,-0.0016,0.0078,0.0094,0.0152,0.022,0.0236,0.024,0.026,0.0391,0.0391,0.0391,0.0317,0.0312,0.0308,0,0,0,0,0,-0.025,-0.0263,-0.0243,-0.0234,-0.0162,-0.0116,-0.0103,-0.0046,-0.0023,-0.0018,0.0051,0.0091,0.0232,0.0225,0.0244,0.025,0.0391,0.0391,0.0391,0.0319,0.0313,0.0308,0,0,0,0,0,0,-0.031,-0.0254,-0.0231,-0.0227,-0.0181,-0.0103,-0.0095,-0.0054,0.0004,0.0011,0.0097,0.0118,0.017,0.022,0.021,0.0292,0.0317,0.032,0.0255,0.025,0.0246,0.0222,0.0265,0,0,0,0,0,-0.0327,-0.0324,-0.0259,-0.0258,-0.0239,-0.0169,-0.0144,-0.0105,-0.0043,-0.0017,0.005,0.0122,0.0185,0.0224,0.0282,0.033,0.0384,0.0346,0.0341,0.0337,0.0331,0.0418,0.0421,0.0392,0.0392,0.0392,0,0,-0.0351,-0.0321,-0.0318,-0.0271,-0.0231,-0.0212,-0.0152,-0.0124,-0.01,-0.0008,0.0039,0.0105,0.0193,0.0246,0.0274,0.029,0.0372,0.0337,0.0333,0.0329,0.0419,0.0422,0.0424,0.0392,0.0392,0.0392,0,0,-0.0403,-0.037,-0.0386,-0.035,-0.03,-0.0252,-0.0249,-0.0175,-0.0136,-0.0083,-0.001,0.0058,0.0149,0.022,0.0266,0.0272,0.034,0.0286,0.0253,0.0337,0.0341,0.0344,0.0406,0.0416,0.0289,0.0289,0.0289,0,-0.0437,-0.0442,-0.0383,-0.0383,-0.0361,-0.0277,-0.0281,-0.0226,-0.0141,-0.0105,-0.0083,0.0071,0.0139,0.0227,0.0226,0.0263,0.0311,0.0265,0.0331,0.0336,0.034,0.0404,0.0415,0.0285,0.0286,0.0286,0.0287,0,-0.0489,-0.0493,-0.0498,-0.0469,-0.0436,-0.0427,-0.0345,-0.0306,-0.0248,-0.0184,-0.0095,0.0009,0.0103,0.0135,0.0183,0.0254,0.0276,0.0309,0.0341,0.0339,0.0405,0.0419,0.028,0.0282,0.0283,0.0284,0,0,-0.0567,-0.0545,-0.0547,-0.0551,-0.0481,-0.0462,-0.0417,-0.0349,-0.0316,-0.0221,-0.0162,-0.0046,0.0019,0.0075,0.0156,0.023,0.0303,0.0272,0.0278,0.0325,0.0474,0.0526,0.0546,0.0347,0.0349,0.035,0.0503,0,-0.063,-0.067,-0.0623,-0.0642,-0.0653,-0.0557,-0.0523,-0.0444,-0.0359,-0.028,-0.0147,-0.0068,-0.0003,0.0041,0.0128,0.0265,0.0336,0.0257,0.0477,0.0483,0.0523,0.0563,0.0468,0.0599,0.0517,0.0519,0.0521,0,-0.0692,-0.0715,-0.0757,-0.0736,-0.0728,-0.0714,-0.0636,-0.0594,-0.0453,-0.0384,-0.0265,-0.0155,-0.0015,0.0029,0.0261,0.0207,0.0323,0.0425,0.0434,0.0518,0.056,0.0593,0.0628,0.0544,0.0542,0.0541,0.0539,0,-0.0786,-0.0799,-0.0842,-0.0834,-0.0794,-0.0782,-0.0748,-0.0633,-0.0592,-0.0446,-0.0392,-0.0205,-0.0107,0.007,0.029,0.0275,0.0541,0.0556,0.0711,0.0715,0.0697,0.0697,0.0704,0.0704,0.0704,0.0703,0.0703,0,-0.0867,-0.0898,-0.0895,-0.0918,-0.0957,-0.0882,-0.0876,-0.0809,-0.0697,-0.0643,-0.046,-0.0362,-0.0095,0.0101,0.0283,0.0551,0.0546,0.0715,0.0769,0.0667,0.0662,0.0663,0.0656,0.0709,0.0708,0.0706,0.0705,0,-0.0956,-0.0955,-0.1006,-0.1002,-0.1007,-0.103,-0.0986,-0.097,-0.0852,-0.0771,-0.0727,-0.047,-0.0201,0.0072,0.0382,0.0544,0.0788,0.0874,0.073,0.0765,0.09,0.0887,0.1065,0.1068,0.1071,0.1073,0.1075,0,-0.1005,-0.1046,-0.109,-0.1133,-0.1138,-0.1158,-0.1168,-0.1069,-0.1032,-0.0827,-0.0787,-0.0509,-0.0278,0.0209,0.0528,0.0875,0.0876,0.0976,0.0942,0.0908,0.0942,0.0925,0.0909,0.0879,0.0879,0.0879,0.088,0,-0.1097,-0.1109,-0.1155,-0.126,-0.1299,-0.1327,-0.1321,-0.1312,-0.1169,-0.1057,-0.0845,-0.064,-0.0161,0.0228,0.0674,0.085,0.0919,0.0994,0.102,0.0805,0.0747,0.0775,0.0763,0.0881,0.0881,0.0881,0.0881,0.0881,-0.1153,-0.1215,-0.1287,-0.1375,-0.1431,-0.147,-0.1481,-0.1419,-0.1339,-0.1137,-0.0923,-0.0594,-0.0195,0.0433,0.0747,0.1006,0.1014,0.1055,0.1048,0.1043,0.0997,0.0948,0.1109,0.111,0.1111,0.1112,0.1113,0,-0.1222,-0.1295,-0.1397,-0.149,-0.1564,-0.1564,-0.156,-0.1516,-0.1406,-0.1176,-0.0927,-0.0497,-0.0039,0.0361,0.0782,0.1067,0.1011,0.1085,0.0954,0.0951,0.0948,0.0892,0.098,0.0981,0.0982,0.0982,0,0,-0.1259,-0.1376,-0.1434,-0.158,-0.1642,-0.169,-0.1681,-0.1573,-0.14,-0.1159,-0.0912,-0.0551,-0.0041,0.0239,0.0584,0.0796,0.0792,0.0793,0.0863,0.0661,0.0656,0.0888,0.0795,0,0,0,0,0]}],[{"header":{"parameterUnit":"m.s-1","parameterCategory":2,"la1":30.2991,"la2":30.254,"lo1":-89.0895,"lo2":-89.0444,"dy":0.0017,"dx":0.0017,"nx":28,"ny":28,"refTime":"2024-04-25T21:00:00:Z","depth":"4","parameterNumber":2,"parameterNumberName":"U-component_of_CURRENTS"},"data":[0,0,0,0,0,0,0,0,0,0,0,0,0,0,0,0,0,0,0,0,0,0,0,0,0,0,0,0,0,0,0,0,0,0,0,0,0,0,0,0,0,0,0,0,0,0,0,0,0,0,0,0,0,0,0,0,0,0,-0.2009,-0.201,0,-0.2086,-0.2087,-0.2088,-0.2134,-0.2134,-0.2135,-0.2135,-0.2184,-0.2185,-0.2186,0,0,0,0,0,0,0,0,0,0,0,0,0,-0.1875,-0.1877,-0.2009,-0.201,-0.2011,-0.2086,-0.2087,-0.2088,-0.2133,-0.2134,-0.2135,-0.2135,-0.2184,-0.2185,-0.2186,0,0,0,0,0,0,0,0,0,0,0,0,0,-0.1938,-0.1878,-0.2008,-0.2046,-0.205,-0.2086,-0.2087,-0.2088,-0.2133,-0.2134,-0.2135,-0.2136,-0.2183,-0.2185,-0.2186,-0.2178,0,0,-0.219,-0.219,0,0,0,0,0,0,0,0,-0.1934,-0.1942,-0.2039,-0.2043,-0.2048,-0.2104,-0.2058,-0.2118,-0.2133,-0.2098,-0.2135,-0.2136,-0.2156,-0.216,-0.2168,-0.218,-0.2182,-0.219,-0.219,-0.2191,-0.2191,0,0,0,0,0,0,0,-0.193,-0.1939,-0.2036,-0.204,-0.2046,-0.205,-0.206,-0.2069,-0.2119,-0.2101,-0.2105,-0.2119,-0.2158,-0.2167,-0.217,-0.2183,-0.219,-0.2191,-0.2192,-0.2192,-0.2295,-0.2297,0,0,0,0,0,0,-0.1928,-0.1935,-0.2033,-0.2039,-0.1996,-0.2052,-0.2063,-0.2082,-0.2119,-0.2127,-0.2119,-0.2121,-0.2164,-0.2168,-0.2172,-0.2267,-0.2191,-0.2192,-0.2193,-0.2293,-0.2295,-0.2297,0,0,0,0,0,0,-0.1925,-0.1936,-0.203,-0.1991,-0.2004,-0.2054,-0.2076,-0.2084,-0.2132,-0.2134,-0.214,-0.2164,-0.2165,-0.217,-0.222,-0.2266,-0.2193,-0.2194,-0.229,-0.2293,-0.2296,-0.2393,0,0,0,0,0,0,-0.1921,-0.1935,-0.1964,-0.1991,-0.2006,-0.2082,-0.2076,-0.2085,-0.2139,-0.2144,-0.2173,-0.2177,-0.2166,-0.2218,-0.2221,-0.2266,-0.2195,-0.2288,-0.2292,-0.2295,-0.2387,-0.2398,-0.2408,0,0,0,0,0,-0.1916,-0.1949,-0.1965,-0.1978,-0.204,-0.2084,-0.2093,-0.2128,-0.214,-0.2172,-0.2195,-0.2178,-0.2244,-0.2221,-0.2224,-0.227,-0.2286,-0.2291,-0.2295,-0.2382,-0.2396,-0.2408,0,0,0,0,0,0,-0.1907,-0.1958,-0.1976,-0.2024,-0.2067,-0.2094,-0.213,-0.2151,-0.2194,-0.2207,-0.2203,-0.2209,-0.2268,-0.2256,-0.2232,-0.231,-0.2262,-0.2267,-0.2327,-0.234,-0.2351,-0.2347,-0.2196,0,0,0,0,0,-0.1918,-0.1959,-0.2002,-0.2045,-0.207,-0.2107,-0.2136,-0.2162,-0.2196,-0.2217,-0.2239,-0.226,-0.2282,-0.2303,-0.2316,-0.2361,-0.2336,-0.2392,-0.2403,-0.2412,-0.2412,-0.2409,-0.2419,-0.2312,-0.2312,-0.2312,0,0,-0.1925,-0.1961,-0.1985,-0.2047,-0.2081,-0.2128,-0.2127,-0.2186,-0.2234,-0.2214,-0.2291,-0.23,-0.2302,-0.2354,-0.2379,-0.2356,-0.2435,-0.2418,-0.2426,-0.242,-0.2415,-0.2425,-0.2434,-0.2315,-0.2314,-0.2314,0,0,-0.195,-0.1995,-0.2035,-0.2078,-0.2144,-0.2168,-0.2196,-0.225,-0.2289,-0.2354,-0.2352,-0.2392,-0.2432,-0.2442,-0.2449,-0.2527,-0.2489,-0.2538,-0.2594,-0.2593,-0.2602,-0.2609,-0.2606,-0.2612,-0.2546,-0.2546,-0.2547,0,-0.1959,-0.2015,-0.2054,-0.2106,-0.2149,-0.2192,-0.2245,-0.229,-0.2357,-0.2388,-0.2395,-0.2462,-0.247,-0.2521,-0.2553,-0.2552,-0.2541,-0.2546,-0.2606,-0.2612,-0.2618,-0.2613,-0.2619,-0.2552,-0.2551,-0.2551,-0.255,0,-0.2002,-0.2065,-0.2095,-0.2173,-0.2224,-0.2279,-0.2342,-0.2403,-0.245,-0.2484,-0.2559,-0.2574,-0.2606,-0.2625,-0.2617,-0.2669,-0.2646,-0.2617,-0.257,-0.2634,-0.2626,-0.263,-0.2559,-0.2557,-0.2556,-0.2554,0,0,-0.1968,-0.2099,-0.2113,-0.2165,-0.2267,-0.2306,-0.2399,-0.2477,-0.2532,-0.26,-0.266,-0.2714,-0.2718,-0.2725,-0.2725,-0.2736,-0.2778,-0.2704,-0.2701,-0.2697,-0.2778,-0.259,-0.2576,-0.2759,-0.276,-0.2761,-0.2762,0,-0.199,-0.209,-0.2156,-0.2256,-0.2309,-0.239,-0.2466,-0.2547,-0.2609,-0.2678,-0.2713,-0.2765,-0.2758,-0.2779,-0.2794,-0.2778,-0.279,-0.278,-0.272,-0.2718,-0.2539,-0.2574,-0.2764,-0.2764,-0.2765,-0.2766,-0.2766,0,-0.1998,-0.2069,-0.2169,-0.2298,-0.233,-0.24,-0.2517,-0.2592,-0.2693,-0.2743,-0.2801,-0.2822,-0.2872,-0.2844,-0.2857,-0.2852,-0.2826,-0.2809,-0.2808,-0.2595,-0.2535,-0.2683,-0.2772,-0.2771,-0.2771,-0.2771,-0.277,0,-0.1928,-0.2072,-0.2152,-0.22,-0.235,-0.2416,-0.2494,-0.2608,-0.2669,-0.2779,-0.282,-0.288,-0.2904,-0.2897,-0.2869,-0.2871,-0.2854,-0.2844,-0.2655,-0.2642,-0.277,-0.2762,-0.2842,-0.2842,-0.2842,-0.2842,-0.2842,0,-0.1901,-0.197,-0.2133,-0.2176,-0.2267,-0.2388,-0.2483,-0.2572,-0.2688,-0.2735,-0.2838,-0.286,-0.2917,-0.2912,-0.2885,-0.2765,-0.2864,-0.2659,-0.2623,-0.2813,-0.281,-0.2773,-0.2765,-0.2842,-0.2842,-0.2842,-0.2842,0,-0.1802,-0.1919,-0.2012,-0.2182,-0.2237,-0.2296,-0.2459,-0.2515,-0.2648,-0.271,-0.2746,-0.2854,-0.2839,-0.2859,-0.284,-0.2753,-0.2681,-0.2613,-0.2821,-0.2797,-0.2476,-0.2473,-0.2412,-0.2405,-0.2399,-0.2394,-0.239,0,-0.1757,-0.1799,-0.1978,-0.2029,-0.2111,-0.2224,-0.2294,-0.2465,-0.2511,-0.2667,-0.2665,-0.2725,-0.276,-0.2587,-0.2637,-0.2565,-0.2529,-0.2494,-0.2484,-0.2457,-0.2429,-0.2436,-0.2441,-0.2381,-0.238,-0.2378,-0.2377,0,-0.165,-0.1728,-0.1801,-0.1902,-0.1992,-0.2072,-0.2181,-0.2203,-0.2372,-0.2525,-0.2507,-0.2497,-0.2473,-0.2452,-0.2402,-0.2355,-0.2521,-0.2434,-0.2446,-0.2436,-0.242,-0.2399,-0.2411,-0.2357,-0.2359,-0.2361,-0.2362,0,-0.1558,-0.1574,-0.1673,-0.174,-0.1847,-0.1873,-0.1963,-0.2017,-0.2088,-0.2275,-0.2258,-0.2329,-0.2436,-0.234,-0.2297,-0.223,-0.2203,-0.2143,-0.217,-0.2193,-0.2117,-0.2064,-0.1851,0,0,0,0,0,-0.1449,-0.1449,-0.1503,-0.1566,-0.1662,-0.1711,-0.1862,-0.1957,-0.213,-0.2054,-0.2151,-0.2119,-0.2075,-0.2124,-0.2003,-0.2189,-0.2204,-0.2042,-0.2148,-0.2246,-0.2269,-0.2198,0,0,0,0,0,0,-0.1379,-0.1419,-0.1437,-0.1393,-0.14,-0.1475,-0.1559,-0.1685,-0.1659,-0.1846,-0.1826,-0.1975,-0.1952,-0.2082,-0.1946,-0.1958,-0.1981,-0.2104,-0.2098,-0.2233,-0.2254,-0.2272,-0.2207,0,0,0,0,0]},{"header":{"parameterUnit":"m.s-1","parameterCategory":2,"la1":30.2991,"la2":30.254,"lo1":-89.0895,"lo2":-89.0444,"dy":0.0017,"dx":0.0017,"nx":28,"ny":28,"refTime":"2024-04-25T21:00:00:Z","depth":"4","parameterNumber":3,"parameterNumberName":"V-component_of_CURRENTS"},"data":[0,0,0,0,0,0,0,0,0,0,0,0,0,0,0,0,0,0,0,0,0,0,0,0,0,0,0,0,0,0,0,0,0,0,0,0,0,0,0,0,0,0,0,0,0,0,0,0,0,0,0,0,0,0,0,0,0,0,-0.0178,-0.0177,0,-0.0085,-0.0084,-0.0083,-0.003,-0.003,-0.003,-0.003,0.0102,0.0106,0.0109,0,0,0,0,0,0,0,0,0,0,0,0,0,-0.0248,-0.0248,-0.0178,-0.0177,-0.0176,-0.0085,-0.0084,-0.0083,-0.003,-0.003,-0.003,-0.003,0.0101,0.0105,0.011,0,0,0,0,0,0,0,0,0,0,0,0,0,-0.0192,-0.0247,-0.0179,-0.014,-0.0136,-0.0086,-0.0084,-0.0082,-0.003,-0.003,-0.003,-0.003,0.01,0.0105,0.011,0.0141,0,0,0.0126,0.0128,0,0,0,0,0,0,0,0,-0.0195,-0.0189,-0.0147,-0.0143,-0.0138,-0.007,-0.006,-0.0006,-0.003,-0.0069,-0.003,-0.003,0.0047,0.0057,0.0076,0.0147,0.0152,0.0126,0.013,0.0132,0.0133,0,0,0,0,0,0,0,-0.0199,-0.0192,-0.014,-0.0146,-0.014,-0.0106,-0.0099,-0.005,-0.001,-0.0065,-0.0061,-0.0053,0.005,0.007,0.0079,0.0154,0.0126,0.0131,0.0134,0.0136,0.0262,0.0262,0,0,0,0,0,0,-0.0217,-0.0196,-0.0143,-0.0137,-0.0168,-0.0106,-0.0097,-0.0091,-0.0012,-0.0,-0.0054,-0.0051,0.0062,0.0073,0.0084,0.0123,0.0132,0.0137,0.014,0.0262,0.0262,0.0262,0,0,0,0,0,0,-0.0219,-0.0213,-0.0147,-0.0166,-0.0155,-0.0105,-0.0098,-0.0089,-0.0069,-0.0004,0.0009,-0.0044,0.0062,0.0077,0.0128,0.0129,0.0139,0.0144,0.0261,0.0262,0.0262,0.0203,0,0,0,0,0,0,-0.0221,-0.0214,-0.0219,-0.0167,-0.0155,-0.0125,-0.0098,-0.0087,-0.0065,-0.0061,0.0009,0.0022,0.0063,0.012,0.0133,0.0136,0.0148,0.0261,0.0261,0.0262,0.0204,0.0201,0.0198,0,0,0,0,0,-0.0224,-0.0231,-0.022,-0.0214,-0.0162,-0.0126,-0.0116,-0.0079,-0.0065,-0.006,-0.0008,0.002,0.0132,0.0125,0.014,0.0144,0.0261,0.0261,0.0262,0.0206,0.0201,0.0198,0,0,0,0,0,0,-0.0262,-0.0224,-0.0212,-0.0207,-0.0174,-0.0118,-0.0111,-0.0083,-0.0038,-0.0035,0.0028,0.0044,0.0086,0.0126,0.0116,0.0182,0.0199,0.0203,0.0151,0.0148,0.0145,0.0122,0.0152,0,0,0,0,0,-0.0274,-0.0272,-0.0227,-0.0225,-0.0212,-0.0163,-0.0144,-0.0118,-0.0071,-0.0052,-0.0002,0.0052,0.0101,0.0131,0.0176,0.0218,0.0258,0.023,0.0227,0.0223,0.0216,0.0283,0.0285,0.0264,0.0264,0.0264,0,0,-0.029,-0.0269,-0.0268,-0.0233,-0.0206,-0.0193,-0.0151,-0.0129,-0.0114,-0.0044,-0.001,0.0041,0.0108,0.015,0.0173,0.0184,0.025,0.0224,0.0221,0.0215,0.0284,0.0286,0.0288,0.0264,0.0264,0.0264,0,0,-0.0321,-0.0301,-0.031,-0.0286,-0.0252,-0.0219,-0.0216,-0.0162,-0.0136,-0.0095,-0.0043,0.001,0.0082,0.0133,0.0168,0.0177,0.0227,0.0189,0.0162,0.0227,0.0229,0.0232,0.0279,0.0286,0.0192,0.0192,0.0192,0,-0.0343,-0.0348,-0.0307,-0.0306,-0.0295,-0.0236,-0.0241,-0.0201,-0.0137,-0.0115,-0.0096,0.002,0.0074,0.0137,0.0138,0.017,0.0208,0.0169,0.0222,0.0225,0.0229,0.0277,0.0285,0.0189,0.019,0.019,0.019,0,-0.0374,-0.0381,-0.0384,-0.0367,-0.0346,-0.034,-0.0285,-0.0258,-0.0219,-0.0175,-0.0111,-0.0027,0.0039,0.0068,0.0107,0.016,0.0178,0.0205,0.0227,0.0227,0.0278,0.0288,0.0185,0.0186,0.0187,0.0188,0,0,-0.0419,-0.0412,-0.0415,-0.0427,-0.0381,-0.037,-0.0342,-0.03,-0.0285,-0.0209,-0.0176,-0.0081,-0.0033,0.0009,0.0074,0.0136,0.0194,0.0173,0.0178,0.0211,0.0327,0.0297,0.0306,0.0231,0.0233,0.0234,0.0349,0,-0.0461,-0.0496,-0.0467,-0.0493,-0.0505,-0.0445,-0.0427,-0.0377,-0.032,-0.0271,-0.0168,-0.0113,-0.0054,-0.0023,0.0049,0.0162,0.0218,0.0159,0.0329,0.0334,0.0301,0.0316,0.0239,0.0357,0.0359,0.0361,0.0362,0,-0.0499,-0.0523,-0.0565,-0.0571,-0.057,-0.0569,-0.0534,-0.0509,-0.0415,-0.0367,-0.0282,-0.0199,-0.0089,-0.0046,0.0143,0.0103,0.0198,0.0286,0.0293,0.0291,0.0323,0.0362,0.0381,0.038,0.0378,0.0377,0.0376,0,-0.0561,-0.0588,-0.0633,-0.0632,-0.0623,-0.0629,-0.0617,-0.0546,-0.0527,-0.0428,-0.0394,-0.0251,-0.0174,-0.0028,0.0155,0.015,0.0361,0.038,0.0443,0.0442,0.046,0.0457,0.0497,0.0497,0.0496,0.0496,0.0496,0,-0.061,-0.0648,-0.0674,-0.0698,-0.0751,-0.0709,-0.073,-0.0689,-0.0623,-0.0596,-0.0457,-0.039,-0.0166,-0.0011,0.0142,0.0325,0.0355,0.0436,0.0472,0.0432,0.0424,0.0467,0.0462,0.05,0.05,0.0499,0.0498,0,-0.066,-0.0677,-0.0737,-0.0766,-0.0785,-0.0819,-0.0824,-0.0825,-0.0752,-0.0708,-0.0679,-0.0484,-0.028,-0.0059,0.0195,0.0299,0.0481,0.0534,0.0467,0.0498,0.0518,0.0509,0.0607,0.0607,0.0607,0.0606,0.0606,0,-0.0685,-0.0724,-0.0804,-0.0855,-0.0876,-0.0923,-0.095,-0.0902,-0.0886,-0.0758,-0.0732,-0.0533,-0.0386,-0.0041,0.0182,0.0467,0.05,0.0578,0.055,0.0505,0.0531,0.0521,0.0512,0.0606,0.0606,0.0606,0.0606,0,-0.0734,-0.0767,-0.0819,-0.0934,-0.0993,-0.1046,-0.1072,-0.1066,-0.0986,-0.0929,-0.0761,-0.0563,-0.0332,-0.0053,0.0171,0.0373,0.0521,0.0578,0.0579,0.0553,0.0506,0.053,0.0521,0.0606,0.0606,0.0606,0.0606,0,-0.0766,-0.082,-0.0901,-0.0993,-0.1081,-0.1131,-0.1139,-0.1094,-0.106,-0.0903,-0.085,-0.0578,-0.0408,-0.0101,0.0109,0.0304,0.0341,0.0381,0.0393,0.0396,0.0297,0.0204,0.0242,0,0,0,0,0,-0.0788,-0.0855,-0.0954,-0.1048,-0.1135,-0.1178,-0.1198,-0.1177,-0.1101,-0.0999,-0.0917,-0.0695,-0.0354,-0.0186,0.0002,0.0085,0.0355,0.0306,0.0401,0.0606,0.0606,0.0523,0,0,0,0,0,0,-0.0805,-0.0901,-0.0956,-0.1072,-0.114,-0.1218,-0.123,-0.1183,-0.11,-0.0999,-0.0806,-0.0683,-0.0342,-0.0464,-0.0004,0.0059,0.0135,0.048,0.0483,0.0606,0.0606,0.0606,0.0521,0,0,0,0,0]}]]